User: anonymous   Login
Location: Iola
(37.9240°N, 95.4000°W)
Time: 22:38:55
(UTC-05:00)
Language:

Meteor 2-10 Rocket - Orbit

View from above orbital plane
View from above orbital plane
View from above satellite
View from above satellite

Ground track
Ground track

The orbit data is extracted from the following two-line orbital elements,

1 14453U 83109B   17177.44755600 +.00000046 +00000-0 +13319-4 0  9993
2 14453 081.1678 096.9935 0105841 037.3582 323.4895 14.24675169748770
Epoch (UTC): 26 June 2017 10:44:28
Eccentricity: 0.0105841
inclination: 81.1678°
perigee height: 733 km
apogee height: 885 km
right ascension of ascending node: 96.9935°
argument of perigee: 37.3582°
revolutions per day: 14.24675169
mean anomaly at epoch: 323.4895°
orbit number at epoch: 74877

The dashed part of the orbit path shows where the satellite is in the earth's shadow,  

DLR